Prescott, AZ

8:06 AM MST on September 15, 2019 (GMT -0700)
Love

Weather History for KPRC - June, 2019

Change the Weather History Date:

Saturday, June 8, 2019

  Actual Average Record
Temperature  
Mean Temperature 66 °F 68 °F  
Max Temperature 84 °F 84 °F 101 °F (1955)
Min Temperature 48 °F 52 °F 37 °F (1982)
Degree Days  
Heating Degree Days 0    
Month to date heating degree days 2  
Since 1 July heating degree days 4330  
Cooling Degree Days 1    
Month to date cooling degree days 20  
Year to date cooling degree days 21  
Growing Degree Days 16 (Base 50)    
Moisture  
Dew Point 29 °F    
Average Humidity 26    
Maximum Humidity 50    
Minimum Humidity 13    
Precipitation  
Precipitation 0.00 in 0.01 in 0.30 in (1977)
Month to date precipitation 0.11 0.07  
Year to date precipitation 6.79 4.61  
Sea Level Pressure  
Sea Level Pressure 29.87 in    
Wind  
Wind Speed 6 mph ()    
Max Wind Speed 17 mph    
Max Gust Speed 24 mph    
Visibility 10.0 miles    
Events      
T = Trace of Precipitation, MM = Missing Value Source: Averaged Metar Reports

Daily Weather History Graph

Daily Weather History Graph

Search for Another Location

Airport or City:

Astronomy

Jun. 08, 2019 Rise Set
Actual Time 5:16 AM MST 7:41 PM MST
Civil Twilight 4:47 AM MST 8:10 PM MST
Nautical Twilight 4:10 AM MST 8:46 PM MST
Astronomical Twilight 3:31 AM MST 9:26 PM MST
Moon 10:42 AM MST (6/8) No Moon Set
Length of Visible Light 15h 23m
Length of Day
14h 24m
Waxing Crescent, 34% of the Moon is Illuminated
Jun 8
Waxing Crescent
Jun 9
First Quarter
Jun 17
Full
Jun 25
Last Quarter
Jul 2
New

Hourly Weather History & Observations

Time (MST) Temp. Dew Point Humidity Pressure Visibility Wind Dir Wind Speed Gust Speed Precip Events Conditions
12:53 AM 60.1 °F 30.0 °F 32% 29.79 in 10.0 mi South 8.1 mph - N/A   Clear
1:53 AM 57.9 °F 30.0 °F 35% 29.80 in 10.0 mi South 5.8 mph - N/A   Clear
2:53 AM 57.9 °F 32.0 °F 37% 29.79 in 10.0 mi SSE 9.2 mph - N/A   Clear
3:53 AM 53.1 °F 35.1 °F 50% 29.81 in 10.0 mi SSW 5.8 mph - N/A   Clear
4:53 AM 52.0 °F 34.0 °F 50% 29.83 in 10.0 mi South 5.8 mph - N/A   Clear
5:53 AM 52.0 °F 33.1 °F 49% 29.85 in 10.0 mi South 6.9 mph - N/A   Clear
6:53 AM 57.9 °F 35.1 °F 42% 29.86 in 10.0 mi South 6.9 mph - N/A   Clear
7:53 AM 66.9 °F 30.9 °F 26% 29.86 in 10.0 mi ESE 3.5 mph - N/A   Clear
8:53 AM 71.1 °F 27.0 °F 19% 29.87 in 10.0 mi Variable 5.8 mph - N/A   Clear
9:53 AM 73.0 °F 21.9 °F 15% 29.88 in 10.0 mi Calm Calm - N/A   Clear
10:53 AM 75.9 °F 23.0 °F 14% 29.88 in 10.0 mi SSW 6.9 mph - N/A   Clear
11:53 AM 80.1 °F 25.0 °F 13% 29.87 in 10.0 mi Variable 3.5 mph - N/A   Clear
12:53 PM 80.1 °F 27.0 °F 14% 29.88 in 10.0 mi SSE 8.1 mph - N/A   Clear
1:53 PM 82.0 °F 27.0 °F 13% 29.87 in 10.0 mi WSW 12.7 mph 21.9 mph N/A   Clear
2:53 PM 82.9 °F 27.0 °F 13% 29.86 in 10.0 mi WSW 11.5 mph 18.4 mph N/A   Clear
3:53 PM 82.9 °F 28.9 °F 14% 29.87 in 10.0 mi SW 12.7 mph 17.3 mph N/A   Clear
4:53 PM 82.0 °F 27.0 °F 13% 29.88 in 10.0 mi West 12.7 mph 19.6 mph N/A   Clear
5:53 PM 81.0 °F 25.0 °F 13% 29.88 in 10.0 mi WSW 13.8 mph - N/A   Clear
6:53 PM 79.0 °F 28.0 °F 15% 29.88 in 10.0 mi WSW 12.7 mph - N/A   Clear
7:53 PM 73.0 °F 28.9 °F 20% 29.89 in 10.0 mi WSW 8.1 mph - N/A   Clear
8:53 PM 70.0 °F 28.9 °F 22% 29.91 in 10.0 mi WSW 6.9 mph - N/A   Clear
9:53 PM 66.0 °F 32.0 °F 28% 29.93 in 10.0 mi SSW 8.1 mph - N/A   Clear
10:53 PM 62.1 °F 32.0 °F 32% 29.94 in 10.0 mi SSW 3.5 mph - N/A   Clear
11:53 PM 62.1 °F 33.1 °F 34% 29.94 in 10.0 mi Calm Calm - N/A   Clear